Home   Weather   52°14'N, 8°01'E   Past weeks
Flag for Germany

Past Weather in 52°14'N, 8°01'E, Germany — Yesterday and Last 2 Weeks

Now
66 °F

Sunny.


Feels Like: 66 °F
Forecast: 59 / 46 °F
Wind: 15 mph from West

Location: Muenster / Osnabrueck

Current Time: May 27, 2019 at 4:19:37 pm

Latest Report: May 27, 2019 at 3:20 pm


Visibility: 10 mi

Pressure: 29.77 "Hg

Humidity: 43%

Dew Point: 43 °F

Location of 52°14'N, 8°01'ELocation

Past Weather in 52°14'N, 8°01'E — Graph

°F

52°14'N, 8°01'E Temperature Yesterday

Maximum temperature yesterday: 72 °F (at 3:20 pm)
Minimum temperature yesterday: 46 °F (at 2:20 am)
Average temperature yesterday: 60 °F

High & Low Weather Summary for the Past Weeks

 TemperatureHumidityPressure
High77 °F (May 19, 3:20 pm)100% (May 16, 9:50 pm)30.72 "Hg (May 16, 9:50 pm)
Low34 °F (May 13, 4:20 am)27% (May 13, 3:50 pm)29.62 "Hg (May 19, 3:50 pm)
Average57 °F66%30.02 "Hg
* Reported May 12 3:20 pm — May 27 3:20 pm, 52°14'N, 8°01'E. Weather by CustomWeather, © 2019

Note: Actual official high and low records may vary slightly from our data, if they occured in-between our weather recording intervals... More about our weather records

Advertising

52°14'N, 8°01'E Weather History for the Previous 24 Hours

Scroll right to see more
 ConditionsComfort  
Time TempWeatherWind HumidityBarometerVisibility
3:20 pm
Mon, May 27
66 °FSunny.15 mph43%29.77 "Hg10 mi
2:50 pm66 °FPassing clouds.14 mph40%29.77 "HgN/A
1:50 pm64 °FScattered clouds.14 mph46%29.80 "HgN/A
1:20 pm66 °FScattered clouds.13 mph46%29.80 "HgN/A
12:50 pm64 °FScattered clouds.13 mph49%29.80 "HgN/A
12:20 pm63 °FScattered clouds.15 mph49%29.80 "HgN/A
11:50 am63 °FScattered clouds.15 mph56%29.80 "HgN/A
11:20 am63 °FScattered clouds.15 mph56%29.80 "HgN/A
10:50 am63 °FScattered clouds.12 mph59%29.80 "HgN/A
9:50 am59 °FScattered clouds.9 mph72%29.80 "HgN/A
9:20 am59 °FScattered clouds.10 mph72%29.80 "HgN/A
8:50 am59 °FScattered clouds.9 mph77%29.80 "HgN/A
8:20 am57 °FScattered clouds.10 mph82%29.80 "HgN/A
7:50 am57 °FScattered clouds.9 mph88%29.77 "HgN/A
7:20 am57 °FLight rain. Partly sunny.8 mph88%29.77 "HgN/A
6:50 am55 °FPartly sunny.7 mph94%29.77 "HgN/A
6:20 am55 °FPartly sunny.8 mph94%29.77 "HgN/A
5:50 am55 °FPartly sunny.5 mph94%29.74 "HgN/A
5:20 am55 °FPartly sunny.8 mph94%29.77 "HgN/A
4:50 am57 °FLight rain. Partly cloudy.8 mph88%29.77 "HgN/A
4:20 am57 °FLight rain. Passing clouds.10 mph94%29.74 "HgN/A
3:50 am57 °FPassing clouds.9 mph94%29.77 "Hg5 mi
3:20 am57 °FPartly cloudy.7 mph94%29.77 "Hg6 mi
2:50 am57 °FPassing clouds.9 mph100%29.77 "Hg2 mi
2:20 am57 °FLight rain. Passing clouds.10 mph94%29.77 "Hg4 mi
1:50 am59 °FLight rain. Passing clouds.15 mph88%29.77 "Hg4 mi
1:20 am64 °FPassing clouds.10 mph64%29.77 "HgN/A
12:50 am64 °FPassing clouds.9 mph64%29.77 "HgN/A
12:20 am64 °FPassing clouds.14 mph60%29.77 "HgN/A
11:50 pm
Sun, May 26
64 °FPassing clouds.17 mph60%29.77 "HgN/A
11:20 pm66 °FPassing clouds.16 mph56%29.77 "HgN/A
10:50 pm66 °FPassing clouds.15 mph60%29.77 "HgN/A
10:20 pm68 °FPassing clouds.12 mph56%29.77 "HgN/A
9:50 pm68 °FPassing clouds.12 mph56%29.80 "HgN/A
9:20 pm68 °FScattered clouds.9 mph60%29.80 "HgN/A
8:50 pm68 °FPassing clouds.12 mph60%29.80 "HgN/A
7:50 pm70 °FPassing clouds.13 mph57%29.80 "HgN/A
7:20 pm70 °FPassing clouds.17 mph53%29.80 "HgN/A
6:50 pm70 °FPassing clouds.14 mph53%29.80 "HgN/A
6:20 pm70 °FPassing clouds.14 mph53%29.83 "HgN/A
5:50 pm70 °FPassing clouds.17 mph53%29.83 "HgN/A
5:20 pm70 °FScattered clouds.20 mph53%29.83 "HgN/A
4:50 pm70 °FScattered clouds.14 mph53%29.83 "HgN/A
4:20 pm70 °FScattered clouds.17 mph53%29.86 "HgN/A
Weather by CustomWeather, © 2019

See weather overview